カタログに戻る

RASSVET-3 11

運用中科学PO
NORAD 68370·PAYLOAD·🇷🇺 Russia

打ち上げ Mar 23, 2026 から Plesetsk Cosmodrome

Loading…

次のパス (今後24時間)

TLE

最新Source: Space-Track

元期: Sep 14, 2026, 14:10 UTC

1 68370U 26061L   26257.59084033  .00024034  00000-0  24748-3 0  9994
2 68370  82.2867 273.7493 0004308 174.7049 185.4256 15.64680949 27586

AllMySatでRASSVET-3 11をリアルタイム追跡

Download on the App Store